Location: Newark
(47.4417°N, 1.1394°W)
Time: 05:05:34
(UTC+00:00)

Envisat - Pass Details

Date: 24 November 2019
Orbit: 764 x 766 km, 98.1° (Epoch: 14 December)

Event Time Altitude Azimuth Distance (km) Brightness Sun altitude
Rises 06:12:49 0° 22° (NNE) 3,243 6.3 -11.4°
Reaches altitude 10° 06:15:23 10° 32° (NNE) 2,311 5.7 -11.0°
Maximum altitude 06:19:55 32° 95° (E) 1,303 5.0 -10.3°
Drops below altitude 10° 06:24:25 10° 158° (SSE) 2,295 6.1 -9.6°
Sets 06:26:56 0° 168° (SSE) 3,216 6.7 -9.2°
